Regional Weather Roundup
Issued by NWS

Home | Current Version | Previous Version | Graphics & Text | Print | Product List | Glossary On
Versions: 1 2 3 4 5 6 7 8 9 10 11 12 13 14 15 16 17 18 19 20 21 22 23 24 25 26 27 28 29 30 31 32 33 34 35 36 37 38 39 40 41 42 43 44 45 46 47 48 49 50
000
ASUS45 KBOI 061510
RWRID
WEATHER ROUNDUP FOR IDAHO
NATIONAL WEATHER SERVICE BOISE ID
800 AM MST FRI MAR 06 2015

NOTE: "FAIR" INDICATES FEW OR NO CLOUDS BELOW 12000 FEET
WITH NO SIGNIFICANT WEATHER AND/OR OBSTRUCTIONS TO VISIBILITY

IDZ012-014-061600-
SOUTHWEST IDAHO


CITY           SKY/WX    TMP DP  RH WIND       PRES   REMARKS
BOISE          CLEAR     31  19  61 SE3       30.43R
CALDWELL       CLEAR     23  12  63 SE3       30.46R
$$

IDZ016-017-061600-
SOUTHCENTRAL IDAHO


CITY           SKY/WX    TMP DP  RH WIND       PRES   REMARKS
BURLEY         CLEAR     30  19  63 CALM      30.41R
JEROME         CLEAR     33  18  53 SE5       30.42R WCI  29
TWIN FALLS     CLEAR     40  17  39 S10       30.41R WCI  33
$$

IDZ019>023-061600-
SOUTHEAST IDAHO


CITY           SKY/WX    TMP DP  RH WIND       PRES   REMARKS
IDAHO FALLS    SUNNY     23  17  78 N6        30.43R WCI  16
POCATELLO      SUNNY     26  23  88 CALM      30.43R
REXBURG        MOSUNNY   21  16  81 E6        30.43R WCI  13
$$

IDZ006-010-011-018-031-032-061600-
CENTRAL IDAHO MOUNTAINS


CITY           SKY/WX    TMP DP  RH WIND       PRES   REMARKS
MCCALL         CLEAR     21  16  81 CALM      30.41R
HAILEY         CLEAR     27  14  59 NW7       30.42R WCI  19
STANLEY          N/A      8   2  76 CALM      30.47R
SALMON         CLEAR     19  16  86 CALM      30.46R
CHALLIS        CLEAR     26  14  60 CALM      30.44R
$$

IDZ002-004-006-007-026-061600-
NORTHERN IDAHO


CITY           SKY/WX    TMP DP  RH WIND       PRES   REMARKS
LEWISTON       CLEAR     32  24  72 E5        30.42R WCI  27
LOWELL           N/A     27  23  85 NW3       30.52S
COEUR D`ALENE  PTCLDY    28  21  74 CALM      30.37R
MULLAN PASS    CLEAR     30  15  53 SW7       30.30S WCI  23
$$



USA.gov is the U.S. government's official web portal to all federal, state and local government web resources and services.